Wind_Speed
10 10 10 9 8 8 8 9 11 11 11 10 10 10 9 8 8 7 6 7 8 9 10 11 11 11 10 8 7 6 4 3 1 1 2 3 4 5 6 7 8 8 8 9 9 9 8 8 7
10 10 10 9 8 9 9 10 11 11 11 11 11 12 11 10 10 8 8 8 9 11 12 13 13 12 11 9 8 6 5 3 2 0 1 3 4 5 6 7 8 9 9 9 9 9 8 8 7
11 10 9 9 8 9 10 11 11 11 12 12 11 12 12 11 11 9 9 9 10 11 13 15 14 13 12 10 9 7 5 4 2 1 2 3 4 5 7 8 9 9 9 9 9 9 8 8 7
11 10 9 9 9 10 10 11 11 12 12 12 12 12 13 12 11 11 9 9 9 11 13 15 16 15 13 11 9 7 6 4 3 2 3 4 5 6 7 9 9 9 9 9 9 9 8 7 6
11 10 10 10 10 10 11 12 12 13 13 13 14 13 14 13 12 11 10 9 9 11 13 14 15 16 15 13 10 8 7 5 4 3 3 4 5 6 7 9 9 9 9 9 9 8 7 7 6
10 11 11 11 10 10 10 12 13 13 13 14 15 15 15 13 12 12 10 9 9 11 14 15 16 16 15 13 12 10 8 7 5 5 4 5 5 6 8 9 9 9 9 8 8 8 7 7 6
10 11 11 11 10 10 11 12 13 14 14 15 15 15 14 14 12 11 10 10 11 13 15 15 15 15 15 14 13 11 9 8 6 6 5 5 6 7 8 9 9 9 8 8 8 8 7 6 6
11 11 10 10 10 10 11 13 14 15 15 15 15 14 14 14 13 12 11 10 12 14 15 15 15 15 15 15 14 12 10 9 7 6 6 6 6 7 8 9 9 9 8 8 7 6 6 6 6
11 10 10 10 10 10 12 13 15 15 16 16 15 16 15 14 13 12 12 10 12 13 14 15 15 15 15 15 14 13 11 9 8 8 7 7 7 7 8 9 8 8 7 7 7 5 5 5 5
10 10 11 11 11 11 12 14 16 16 17 16 16 16 16 16 14 12 11 10 10 13 14 16 16 16 16 15 14 13 11 10 9 8 7 7 7 8 8 8 7 7 7 6 6 5 4 4 4
10 10 11 11 11 11 12 15 16 17 17 16 16 16 17 16 14 11 10 9 9 12 15 17 17 16 16 15 15 14 12 11 9 8 8 8 8 8 7 7 6 6 6 6 6 5 4 4 3
10 10 9 10 10 11 13 15 16 17 17 17 17 17 17 15 12 10 8 9 10 12 15 17 17 16 16 15 15 14 13 11 10 9 8 8 8 6 6 5 5 5 5 5 5 4 4 3 3
8 8 7 8 9 11 13 15 16 17 18 18 18 18 16 14 11 8 5 6 8 11 14 16 17 17 16 16 16 15 13 12 10 10 9 8 7 5 5 4 4 4 4 4 4 4 3 3 3
8 6 6 7 8 10 12 14 14 16 17 18 19 17 17 14 11 8 4 3 7 10 13 15 16 17 16 16 16 15 14 13 11 10 9 8 6 5 4 4 4 3 3 3 3 3 2 1 1
8 6 7 7 8 10 12 14 14 16 17 18 18 18 16 13 10 7 4 4 6 8 12 15 16 16 15 16 16 15 15 13 12 10 9 7 6 5 4 3 3 2 2 2 2 1 1 1 1
9 8 8 8 9 11 13 14 15 17 18 19 18 17 15 12 9 5 4 6 7 9 11 14 15 16 15 15 15 15 14 13 12 10 8 7 6 5 4 3 2 2 1 1 1 1 1 1 1
12 10 10 10 11 13 13 14 16 17 19 19 18 16 13 11 8 6 4 5 7 10 11 13 14 15 14 15 16 15 14 13 12 10 8 8 7 6 5 4 3 2 1 1 1 2 2 2 2
13 12 12 12 12 12 13 15 16 17 18 18 17 15 13 10 8 6 5 5 7 10 12 13 14 15 15 15 15 15 15 13 12 11 10 9 8 7 6 5 4 3 2 1 2 2 3 3 3
15 14 13 13 13 13 14 15 17 17 17 16 15 14 14 11 9 7 6 5 6 8 12 15 15 15 16 16 16 16 15 13 13 12 11 10 9 8 7 6 5 4 3 2 2 2 3 3 3
17 16 15 14 14 14 14 16 17 17 17 15 13 13 13 12 9 7 5 5 6 7 10 13 15 16 16 16 16 16 15 14 14 13 13 11 10 9 8 7 6 5 4 3 2 2 3 3 3
17 17 17 16 15 14 14 15 16 16 15 14 13 12 12 12 10 7 5 5 5 8 9 14 15 16 15 16 17 16 15 15 15 15 13 12 11 10 9 8 7 6 5 4 3 2 2 2 3
18 18 18 16 15 14 14 15 14 16 15 14 13 11 11 11 10 8 6 4 6 8 9 12 14 15 14 14 15 16 14 14 15 15 14 13 12 11 10 9 8 7 6 5 4 3 2 2 2
18 18 18 16 15 14 15 15 14 15 14 13 12 11 11 10 9 8 6 3 3 7 10 11 14 15 14 13 15 16 15 15 15 15 15 14 13 12 12 11 10 9 8 7 6 5 4 3 3
17 18 18 16 15 14 14 14 13 14 14 12 11 11 10 9 8 7 6 4 2 5 8 11 14 15 15 14 16 16 15 15 15 15 15 15 14 14 13 12 11 10 9 9 8 7 6 6 5
17 17 18 16 14 12 13 12 13 12 12 11 11 10 10 9 8 7 6 4 2 4 6 10 13 14 16 15 16 17 16 16 16 15 15 15 16 15 14 14 13 12 11 11 10 10 9 9 9
17 18 18 17 14 12 11 11 12 10 10 11 11 11 9 8 8 7 5 3 2 3 5 8 11 14 15 14 15 16 16 16 16 16 16 17 17 16 16 15 15 14 14 14 13 13 12 12 11
17 17 17 18 16 14 12 11 9 8 10 11 11 11 10 8 7 6 5 4 3 2 5 7 11 13 14 14 15 15 16 17 17 17 18 18 18 18 17 17 17 17 17 17 16 16 16 15 15
18 17 18 18 18 16 13 11 10 10 10 10 11 11 9 8 7 7 6 5 4 3 4 7 10 12 14 15 15 16 16 17 18 19 19 19 19 19 19 19 19 19 19 19 20 20 19 19 19
20 20 19 19 19 18 16 12 12 12 10 10 11 11 10 8 8 8 7 6 6 5 5 7 9 12 13 14 16 17 17 18 19 20 20 20 20 21 21 21 21 21 22 22 23 23 23 23 23
24 23 22 21 19 18 17 13 13 12 12 11 11 11 10 8 8 8 8 8 8 7 6 6 8 10 12 14 15 17 18 19 20 21 21 21 22 22 23 23 23 24 25 25 26 26 26 26 27
Wind_Direction
347 346 344 348 347 353 355 358 360 0 5 4 1 356 347 337 325 310 285 264 249 234 228 221 222 214 207 198 190 178 164 153 134 80 26 0 347 340 340 339 337 335 335 338 339 342 345 348 352
342 343 343 343 344 347 348 350 354 357 2 359 355 352 343 334 324 314 287 267 251 240 226 220 217 212 208 202 194 183 176 173 171 208 341 340 336 335 336 336 336 333 331 332 333 336 339 341 346
338 338 339 340 341 343 346 346 350 356 358 356 353 350 345 336 326 313 292 268 249 238 223 218 215 212 208 204 198 189 191 193 198 242 297 317 323 325 330 334 335 332 330 329 330 330 332 333 336
335 334 336 340 342 344 345 347 351 355 354 351 351 346 340 334 325 317 300 272 251 233 220 216 216 213 207 201 198 195 198 205 219 248 285 305 313 319 325 330 331 328 328 328 328 327 327 328 328
331 331 334 339 344 346 346 350 355 356 356 352 348 344 340 332 321 309 301 280 252 234 223 220 218 212 205 202 201 198 201 213 229 252 278 296 307 316 321 324 325 324 326 327 327 326 325 325 324
327 331 333 338 343 348 353 358 360 358 357 352 344 338 334 330 321 308 289 267 246 231 221 220 214 209 206 204 203 203 206 215 229 248 268 285 299 311 316 316 318 319 321 323 323 324 323 322 319
325 329 333 335 338 349 5 7 2 357 353 351 343 335 329 324 320 310 291 259 243 229 219 213 209 208 207 206 204 208 211 219 231 244 261 277 291 302 309 311 310 312 314 316 319 322 321 319 312
325 325 327 333 339 353 6 6 -0 354 350 347 342 336 330 325 316 303 290 271 245 222 214 213 208 208 209 207 206 211 212 220 231 240 255 270 284 295 304 307 307 308 310 314 319 321 320 315 306
324 321 322 330 340 352 358 358 355 351 346 343 342 339 332 327 319 307 290 273 245 222 215 212 208 209 212 211 209 212 216 223 232 241 253 266 279 292 299 303 305 304 307 312 317 319 315 311 304
323 317 320 328 340 351 351 351 350 347 344 342 340 338 336 328 320 311 291 271 245 224 215 211 210 211 213 214 216 214 217 224 233 246 256 266 278 288 293 298 301 303 307 311 314 317 314 305 298
321 314 320 326 339 347 347 347 345 343 343 342 339 338 335 330 323 311 289 266 242 219 212 210 209 211 211 213 217 215 216 220 232 247 256 263 272 281 287 292 296 299 304 310 317 318 311 306 294
311 315 320 329 337 345 346 342 340 340 339 339 335 335 334 329 327 313 283 264 235 213 208 204 203 205 209 212 215 215 216 219 233 245 253 261 268 275 281 286 292 299 303 307 312 313 305 299 291
304 308 319 328 336 341 340 337 338 338 336 337 335 335 333 330 322 321 302 257 219 204 198 199 201 205 209 213 215 216 219 225 234 243 249 256 260 268 279 286 295 303 306 309 309 306 301 291 276
295 294 304 318 327 331 337 337 335 337 337 339 337 335 334 325 317 313 297 249 204 197 198 199 197 204 209 215 217 218 220 224 229 237 242 246 252 259 271 280 293 302 308 317 323 321 319 312 281
275 275 290 304 315 323 333 339 337 335 335 336 335 334 334 328 321 309 283 247 214 200 199 200 200 204 208 212 215 216 216 220 227 227 231 237 243 248 256 271 287 296 304 324 342 341 352 357 338
266 271 277 296 308 318 327 337 339 337 336 334 332 334 333 330 327 316 285 254 229 211 207 205 205 206 209 212 214 212 213 218 218 219 223 228 230 231 239 248 257 264 283 354 31 45 57 53 33
267 269 276 288 305 315 327 337 338 337 338 338 334 333 331 328 323 308 283 262 232 218 216 209 205 204 207 209 209 207 207 207 208 211 217 221 223 227 227 227 221 211 169 80 68 69 73 69 58
265 271 277 288 302 314 327 335 336 336 335 337 337 336 333 328 317 308 289 271 242 223 215 213 206 202 202 204 207 206 203 205 207 209 213 214 216 217 215 213 204 190 162 127 94 86 81 81 80
263 270 277 286 298 313 327 332 333 335 336 337 336 335 335 333 324 310 295 270 242 224 217 214 207 205 207 206 207 207 206 206 207 208 209 209 210 209 208 202 191 181 170 156 128 109 97 90 82
262 270 278 284 296 312 325 331 333 335 336 335 333 331 331 333 332 319 299 267 231 214 211 209 208 208 206 204 204 205 208 208 208 205 206 208 210 207 204 197 191 185 178 173 156 138 113 102 94
262 270 279 289 299 312 322 329 332 335 335 332 327 324 327 329 328 324 302 265 235 218 214 211 205 208 205 202 203 205 208 208 206 204 205 207 208 205 202 197 194 193 187 183 177 166 150 128 108
258 268 278 288 299 309 318 324 329 333 333 333 330 323 322 322 327 327 316 282 238 218 206 204 204 203 203 202 203 205 207 208 207 206 207 207 208 208 208 204 203 206 205 206 209 208 194 175 152
258 266 276 286 296 306 315 320 326 329 333 328 328 327 325 325 328 329 325 311 239 211 208 205 202 202 204 207 205 207 212 212 211 210 212 211 212 214 214 211 212 216 218 221 224 224 219 215 219
260 266 275 283 293 303 312 320 326 324 330 328 325 326 325 324 323 324 326 320 258 217 210 206 205 206 205 207 206 212 215 217 217 217 217 216 216 217 218 218 220 224 227 229 230 231 231 237 246
259 265 273 279 287 299 307 316 327 323 328 327 324 323 322 316 318 319 323 321 268 215 210 208 207 205 205 205 207 213 217 219 221 221 222 223 221 221 223 225 227 231 234 235 237 239 242 247 254
251 260 271 277 282 288 296 313 327 328 326 324 320 317 315 307 307 317 319 321 296 236 212 210 209 205 204 206 209 214 220 223 222 224 226 228 228 228 230 232 235 238 240 241 243 245 248 251 256
241 253 265 273 281 285 292 307 320 324 324 320 317 317 310 304 299 306 313 304 296 260 227 221 212 210 209 212 215 220 224 226 226 228 230 231 233 234 236 239 242 245 247 248 249 251 253 256 260
238 247 258 268 278 283 291 303 311 316 318 315 315 313 308 301 292 293 298 287 286 275 248 235 226 217 217 220 223 225 225 227 228 230 233 235 236 239 241 244 247 250 252 253 255 256 258 261 263
241 246 254 262 273 282 290 304 305 305 303 305 308 307 305 301 292 287 286 281 273 270 263 243 235 225 225 229 231 232 232 233 233 235 237 238 240 243 245 248 250 253 256 257 258 260 262 264 266
246 250 255 261 270 278 286 298 300 301 293 293 299 301 296 296 296 290 283 277 266 263 264 252 244 235 233 233 235 238 239 239 237 238 240 242 245 248 251 251 253 256 258 259 261 262 264 266 268
Height
5880 5878 5878 5878 5878 5877 5876 5875 5874 5872 5871 5870 5869 5868 5868 5868 5868 5871 5869 5868 5869 5870 5871 5872 5874 5875 5876 5877 5878 5879 5880 5881 5882 5883 5884 5884 5885 5885 5885 5885 5885 5885 5885 5885 5885 5885 5885 5885 5885
5880 5879 5879 5878 5878 5877 5876 5874 5873 5871 5870 5869 5867 5866 5866 5865 5865 5866 5866 5866 5866 5868 5869 5871 5872 5873 5875 5876 5877 5878 5879 5880 5881 5882 5883 5883 5884 5884 5884 5884 5884 5884 5884 5884 5884 5885 5884 5885 5885
5879 5879 5879 5878 5877 5876 5875 5874 5872 5870 5869 5868 5866 5865 5864 5864 5863 5863 5863 5863 5864 5865 5867 5869 5870 5872 5873 5874 5876 5877 5878 5879 5880 5881 5882 5882 5883 5883 5883 5883 5883 5883 5884 5884 5884 5884 5884 5884 5884
5879 5879 5879 5879 5877 5876 5874 5873 5870 5869 5868 5866 5865 5864 5863 5862 5861 5861 5860 5861 5862 5863 5864 5867 5869 5870 5871 5873 5875 5876 5877 5879 5880 5880 5881 5881 5882 5882 5882 5882 5882 5882 5883 5883 5883 5883 5883 5883 5883
5879 5879 5879 5877 5876 5875 5873 5871 5869 5867 5866 5864 5863 5862 5861 5860 5859 5858 5858 5858 5859 5861 5862 5865 5867 5868 5870 5871 5873 5875 5876 5878 5879 5880 5880 5880 5881 5881 5881 5881 5881 5881 5882 5882 5882 5882 5882 5882 5882
5879 5878 5878 5876 5876 5875 5872 5870 5868 5866 5864 5863 5862 5860 5859 5858 5857 5856 5855 5856 5857 5858 5860 5862 5864 5866 5868 5870 5872 5873 5875 5876 5878 5879 5879 5880 5880 5880 5880 5880 5880 5880 5880 5881 5881 5881 5881 5881 5881
5879 5877 5876 5876 5875 5873 5871 5869 5867 5865 5863 5861 5860 5859 5857 5856 5855 5854 5853 5854 5854 5856 5857 5859 5862 5864 5866 5868 5870 5872 5874 5875 5877 5878 5878 5879 5879 5879 5879 5879 5879 5879 5879 5880 5880 5880 5880 5880 5880
5878 5878 5876 5875 5873 5872 5870 5867 5865 5863 5862 5861 5859 5857 5855 5854 5852 5851 5851 5851 5851 5853 5855 5858 5860 5862 5864 5866 5869 5871 5873 5874 5876 5876 5877 5878 5878 5878 5878 5878 5878 5878 5878 5879 5879 5879 5879 5879 5879
5878 5878 5875 5874 5872 5871 5869 5866 5864 5862 5861 5859 5857 5855 5853 5851 5849 5848 5847 5848 5849 5851 5854 5856 5858 5861 5863 5865 5867 5869 5871 5873 5874 5875 5876 5877 5877 5877 5877 5877 5877 5877 5877 5878 5878 5878 5878 5878 5878
5877 5876 5875 5874 5872 5870 5868 5866 5864 5862 5859 5857 5855 5853 5850 5848 5846 5845 5844 5844 5846 5849 5851 5853 5856 5858 5861 5863 5865 5867 5869 5871 5873 5874 5875 5876 5876 5876 5876 5876 5876 5876 5876 5877 5877 5877 5877 5877 5877
5876 5876 5875 5873 5871 5869 5867 5865 5863 5861 5858 5856 5853 5851 5848 5845 5843 5842 5841 5841 5843 5846 5848 5851 5853 5856 5858 5861 5863 5865 5867 5869 5871 5872 5874 5874 5875 5875 5875 5875 5875 5875 5875 5876 5876 5876 5876 5876 5876
5876 5875 5874 5873 5871 5869 5866 5864 5862 5860 5858 5855 5852 5849 5846 5844 5841 5839 5838 5839 5840 5843 5845 5848 5851 5854 5856 5859 5861 5863 5865 5867 5869 5871 5872 5873 5873 5874 5874 5874 5874 5874 5875 5875 5875 5875 5875 5875 5875
5875 5874 5873 5872 5870 5868 5865 5863 5861 5858 5856 5853 5850 5847 5845 5841 5840 5838 5837 5837 5839 5841 5843 5846 5849 5852 5855 5857 5859 5862 5864 5866 5868 5869 5871 5871 5872 5872 5873 5873 5873 5874 5874 5874 5874 5874 5874 5874 5874
5874 5873 5872 5870 5868 5867 5864 5862 5860 5857 5854 5851 5849 5846 5843 5840 5838 5837 5836 5837 5838 5840 5842 5844 5847 5850 5852 5855 5858 5860 5862 5864 5866 5868 5869 5870 5870 5871 5872 5872 5872 5873 5873 5873 5873 5873 5873 5873 5873
5872 5872 5870 5869 5867 5865 5864 5862 5859 5855 5852 5850 5847 5844 5841 5838 5836 5835 5835 5835 5837 5838 5840 5842 5845 5848 5850 5853 5855 5858 5860 5862 5864 5866 5867 5868 5869 5870 5871 5872 5872 5872 5872 5872 5872 5873 5873 5873 5873
5870 5870 5869 5868 5866 5864 5863 5860 5857 5854 5851 5847 5844 5841 5839 5837 5835 5834 5834 5834 5835 5836 5838 5841 5843 5846 5848 5851 5853 5856 5858 5861 5863 5865 5866 5867 5869 5870 5871 5871 5871 5871 5872 5872 5872 5872 5872 5872 5872
5868 5867 5867 5866 5865 5862 5861 5858 5856 5852 5849 5846 5842 5839 5838 5836 5834 5833 5832 5832 5833 5834 5836 5838 5841 5844 5846 5849 5851 5854 5857 5859 5861 5863 5864 5866 5868 5869 5870 5871 5871 5871 5871 5872 5872 5872 5872 5872 5872
5866 5865 5865 5864 5862 5861 5859 5857 5854 5851 5848 5845 5841 5838 5836 5834 5833 5831 5830 5831 5831 5831 5834 5836 5839 5841 5844 5847 5850 5853 5855 5858 5860 5862 5863 5865 5866 5868 5869 5870 5870 5871 5871 5872 5872 5872 5872 5872 5872
5863 5863 5863 5862 5860 5859 5857 5855 5853 5850 5847 5844 5841 5838 5835 5833 5831 5830 5829 5828 5828 5829 5832 5835 5837 5839 5842 5845 5848 5851 5854 5856 5858 5860 5862 5864 5865 5867 5868 5869 5870 5870 5871 5872 5872 5872 5872 5872 5872
5860 5861 5860 5860 5858 5856 5855 5853 5851 5848 5845 5842 5840 5837 5835 5832 5830 5828 5827 5827 5827 5828 5829 5832 5835 5837 5840 5843 5846 5849 5852 5854 5857 5859 5861 5863 5864 5866 5867 5868 5869 5870 5871 5871 5872 5872 5872 5872 5872
5858 5858 5858 5857 5856 5854 5853 5852 5850 5847 5844 5841 5839 5837 5835 5833 5831 5829 5827 5826 5826 5826 5828 5830 5832 5835 5838 5841 5845 5848 5850 5852 5855 5857 5859 5861 5863 5865 5866 5867 5868 5870 5870 5871 5872 5872 5873 5873 5873
5855 5855 5855 5855 5854 5853 5852 5850 5848 5846 5843 5841 5839 5837 5835 5833 5831 5829 5827 5826 5825 5825 5827 5828 5831 5834 5837 5840 5843 5845 5848 5851 5854 5856 5858 5860 5861 5863 5865 5866 5867 5869 5870 5871 5871 5872 5872 5873 5873
5853 5853 5853 5852 5852 5851 5850 5848 5848 5844 5842 5840 5838 5836 5834 5832 5830 5828 5827 5825 5824 5825 5826 5828 5830 5833 5836 5838 5841 5844 5847 5850 5852 5854 5856 5858 5860 5862 5864 5865 5866 5868 5869 5870 5870 5871 5872 5872 5873
5850 5850 5850 5850 5850 5850 5848 5847 5846 5843 5841 5839 5837 5835 5833 5832 5830 5828 5827 5825 5824 5825 5826 5827 5829 5832 5834 5836 5839 5843 5845 5848 5850 5852 5854 5856 5858 5860 5862 5864 5865 5866 5867 5868 5869 5870 5871 5871 5872
5846 5847 5847 5847 5848 5848 5846 5845 5844 5842 5840 5838 5836 5834 5833 5832 5830 5829 5827 5825 5824 5824 5825 5826 5828 5830 5832 5835 5838 5841 5843 5846 5848 5850 5852 5854 5857 5858 5860 5862 5863 5865 5866 5867 5868 5868 5869 5870 5870
5843 5844 5845 5845 5845 5845 5844 5843 5843 5840 5838 5836 5835 5834 5832 5831 5830 5829 5827 5826 5825 5824 5824 5825 5826 5828 5831 5833 5836 5838 5841 5844 5846 5848 5850 5852 5854 5856 5858 5860 5861 5862 5863 5865 5866 5866 5867 5867 5868
5839 5840 5841 5841 5841 5841 5842 5842 5841 5839 5837 5835 5834 5833 5831 5830 5829 5828 5827 5826 5825 5824 5824 5824 5825 5827 5829 5831 5834 5836 5839 5841 5844 5846 5848 5850 5852 5854 5855 5857 5858 5860 5861 5862 5863 5864 5864 5864 5865
5835 5836 5837 5838 5837 5838 5839 5839 5839 5837 5835 5834 5833 5831 5830 5829 5828 5827 5826 5825 5825 5824 5824 5824 5825 5826 5828 5830 5832 5834 5836 5838 5840 5843 5845 5846 5848 5850 5852 5853 5855 5856 5857 5858 5859 5860 5860 5861 5861
5831 5832 5833 5834 5834 5834 5835 5838 5836 5835 5833 5832 5831 5830 5829 5828 5827 5826 5826 5825 5825 5824 5823 5824 5824 5824 5826 5828 5830 5831 5833 5835 5838 5840 5841 5843 5845 5846 5848 5849 5850 5851 5853 5853 5854 5855 5855 5856 5856
5827 5828 5829 5830 5831 5831 5831 5836 5832 5832 5831 5830 5829 5828 5827 5826 5825 5825 5824 5824 5824 5823 5823 5823 5822 5823 5824 5825 5827 5829 5830 5832 5834 5836 5837 5839 5841 5842 5843 5844 5846 5847 5847 5848 5849 5849 5850 5850 5850